This demonstration page uses our WeatherBlox Daily Observations layout. Learn more.

Left ArrowRight Arrow

40.92945, -100.16068

Hourly Observations for July 20, 2020

Temp ( °F °C ) Dew Point ( °F °C ) Humidity (%) Winds ( mph kmh ) Pressure ( in mb ) Visibility ( mi km ) Precip ( " mm )
12:15 am 00:15 Cloudy with Nearby Thunderstorms 75 24.1 67 19.7 77 77 SE 16 26 29.88 1012 10 16.0934 0 0
12:35 am 00:35 Cloudy 74 23.6 67 19.6 78 78 SSE 14 22 29.91 1013 10 16.0934 0 0
12:55 am 00:55 Cloudy with Thunderstorms 72 22.3 66 19 82 82 SE 15 24 29.91 1013 10 16.0934 0.01 0.254
1:15 am 01:15 Mostly Cloudy with Light Rain 71 21.5 65 18.6 84 84 SE 15 24 29.89 1012 10 16.0934 0.01 0.254
1:35 am 01:35 Partly Cloudy with Light Rain 70 21.1 65 18.2 84 84 ESE 22 35 29.83 1010 10 16.0934 0.01 0.254
1:55 am 01:55 Clear 69 20.8 64 17.8 83 83 ESE 14 22 29.85 1011 10 16.0934 0.01 0.254
2:15 am 02:15 Clear 69 20.5 64 18 86 86 SE 9 15 29.84 1010 10 16.0934 0 0
2:35 am 02:35 Clear 68 20.1 65 18.2 89 89 N 7 11 29.85 1011 10 16.0934 0 0
2:55 am 02:55 Clear 67 19.5 65 18.2 92 92 WNW 12 19 29.91 1013 10 16.0934 0 0
3:15 am 03:15 Clear 67 19.5 64 18 91 91 N 12 19 29.95 1014 10 16.0934 0 0
3:35 am 03:35 Clear 68 19.9 64 17.6 87 87 N 10 17 29.93 1014 10 16.0934 0 0
3:55 am 03:55 Clear 67 19.6 64 17.6 88 88 NNE 12 19 29.95 1014 10 16.0934 0 0
4:15 am 04:15 Clear 68 19.8 63 17.3 86 86 NE 12 19 29.93 1014 10 16.0934 0 0
4:35 am 04:35 Clear 68 20 63 17.3 85 85 ENE 12 19 29.91 1013 10 16.0934 0 0
4:55 am 04:55 Clear 68 20 63 17.1 83 83 E 10 17 29.91 1013 10 16.0934 0 0
5:15 am 05:15 Clear 68 19.9 63 17.2 85 85 E 8 13 29.92 1013 10 16.0934 0 0
5:35 am 05:35 Clear 67 19.6 63 17.2 86 86 E 12 19 29.93 1013 10 16.0934 0 0
5:55 am 05:55 Clear 66 19.1 63 17 88 88 E 9 15 29.93 1014 10 16.0934 0 0
6:15 am 06:15 Clear 66 18.7 63 17 90 90 E 9 15 29.93 1014 10 16.0934 0 0
6:35 am 06:35 Mostly Cloudy 66 18.8 63 17 89 89 E 10 17 29.94 1014 10 16.0934 0 0
6:55 am 06:55 Cloudy 65 18.5 62 16.8 90 90 ESE 13 20 29.95 1014 10 16.0934 0 0
7:15 am 07:15 Mostly Cloudy 65 18.3 62 16.9 92 92 ESE 15 24 29.96 1014 10 16.0934 0 0
7:35 am 07:35 Mostly Cloudy 65 18.3 62 16.8 91 91 E 8 13 29.96 1014 10 16.0934 0 0
7:55 am 07:55 Partly Cloudy 65 18.5 63 17 91 91 ESE 8 13 29.93 1013 10 16.0934 0 0
8:15 am 08:15 Sunny with Nearby Thunderstorms 67 19.2 63 17.1 88 88 E 9 15 29.92 1013 10 16.0934 0 0
8:35 am 08:35 Sunny 68 20 63 17.3 85 85 E 7 11 29.91 1013 10 16.0934 0 0
8:55 am 08:55 Sunny 69 20.7 64 17.5 82 82 ESE 10 17 29.91 1013 10 16.0934 0 0
9:15 am 09:15 Sunny 70 21.2 64 17.6 80 80 SE 12 19 29.9 1013 10 16.0934 0 0
9:35 am 09:35 Sunny 71 21.6 64 17.9 80 80 SSE 12 19 29.9 1012 10 16.0934 0 0
9:55 am 09:55 Sunny 71 21.5 64 18 81 81 SSE 10 17 29.89 1012 10 16.0934 0 0
10:15 am 10:15 Sunny 71 21.7 65 18.1 80 80 SE 7 11 29.91 1013 10 16.0934 0 0
10:35 am 10:35 Partly Cloudy 73 22.5 65 18.6 79 79 E 9 15 29.91 1013 10 16.0934 0 0
10:55 am 10:55 Partly Cloudy 74 23.2 66 18.8 76 76 E 10 17 29.9 1013 10 16.0934 0 0
11:15 am 11:15 Partly Cloudy 74 23.5 65 18.4 73 73 E 10 17 29.89 1012 10 16.0934 0 0
11:35 am 11:35 Partly Cloudy 76 24.6 66 18.8 70 70 E 12 19 29.88 1012 10 16.0934 0 0
11:55 am 11:55 Partly Cloudy 76 24.5 66 18.7 70 70 E 7 11 29.89 1012 10 16.0934 0 0
12:15 pm 12:15 Mostly Cloudy 77 24.9 66 19 70 70 SE 8 13 29.88 1012 10 16.0934 0 0
12:35 pm 12:35 Cloudy 77 25.1 66 19.1 69 69 SE 7 11 29.87 1011 10 16.0934 0 0
12:55 pm 12:55 Cloudy 79 26.2 67 19.5 67 67 SE 10 17 29.86 1011 10 16.0934 0 0
1:15 pm 13:15 Cloudy 79 25.9 67 19.6 68 68 SE 10 17 29.86 1011 10 16.0934 0 0
1:35 pm 13:35 Cloudy 79 25.9 67 19.7 69 69 SE 9 15 29.85 1011 10 16.0934 0 0
1:55 pm 13:55 Cloudy 79 26.2 68 20 69 69 ESE 10 17 29.85 1011 10 16.0934 0 0
2:15 pm 14:15 Cloudy 79 26.2 68 20.2 70 70 SE 12 19 29.85 1011 10 16.0934 0 0
2:35 pm 14:35 Cloudy 81 27.3 69 20.3 66 66 SE 9 15 29.83 1010 10 16.0934 0 0
2:55 pm 14:55 Cloudy 82 27.8 69 20.5 65 65 ESE 10 17 29.83 1010 10 16.0934 0 0
3:15 pm 15:15 Cloudy 83 28.4 69 20.7 63 63 SE 10 17 29.81 1010 10 16.0934 0 0
3:35 pm 15:35 Cloudy 82 28 69 20.7 65 65 ESE 13 20 29.82 1010 10 16.0934 0 0
3:55 pm 15:55 Cloudy 82 27.6 70 21 67 67 ESE 12 19 29.82 1010 10 16.0934 0 0
4:15 pm 16:15 Mostly Cloudy 83 28.5 70 21.2 65 65 ESE 14 22 29.79 1009 10 16.0934 0 0
4:35 pm 16:35 Partly Cloudy 83 28.6 70 21.1 64 64 SE 10 17 29.78 1008 10 16.0934 0 0
4:55 pm 16:55 Mostly Cloudy 83 28.6 70 21.3 65 65 ESE 13 20 29.79 1009 10 16.0934 0 0
5:15 pm 17:15 Mostly Cloudy 84 28.8 71 21.5 65 65 E 15 24 29.78 1008 10 16.0934 0 0
5:35 pm 17:35 Mostly Cloudy 83 28.6 71 21.5 65 65 E 13 20 29.79 1009 10 16.0934 0 0
5:55 pm 17:55 Cloudy 82 28 71 21.5 68 68 E 14 22 29.79 1009 10 16.0934 0 0
6:15 pm 18:15 Mostly Cloudy 83 28.5 71 21.6 66 66 E 15 24 29.76 1008 10 16.0934 0 0
6:35 pm 18:35 Partly Cloudy 84 28.8 71 21.7 66 66 ESE 14 22 29.76 1008 10 16.0934 0 0
6:55 pm 18:55 Partly Cloudy 82 27.7 71 21.6 69 69 E 14 22 29.78 1008 10 16.0934 0 0
7:15 pm 19:15 Hazy 81 27 71 21.6 72 72 E 12 19 29.78 1009 5 8.0467 0 0
7:35 pm 19:35 Hazy 80 26.5 71 21.7 75 75 ESE 13 20 29.81 1009 5 8.0467 0 0
7:55 pm 19:55 Partly Cloudy 79 26.3 71 21.8 76 76 ESE 14 22 29.79 1009 7 11.26538 0 0
8:15 pm 20:15 Sunny 79 26 71 21.8 78 78 E 8 13 29.81 1010 10 16.0934 0 0
8:35 pm 20:35 Sunny 77 25.1 72 22 83 83 E 6 9 29.83 1010 10 16.0934 0 0
8:55 pm 20:55 Partly Cloudy with Thunderstorms 77 25.2 72 22 82 82 Calm 29.84 1010 10 16.0934 0 0
9:15 pm 21:15 Mostly Cloudy 65 18.4 60 15.7 84 84 WNW 29 46 29.96 1014 7 11.26538 0 0
9:35 pm 21:35 Cloudy with Light Thunderstorms 65 18.5 62 16.4 88 88 NNW 18 30 29.9 1012 5 8.0467 0.09 2.286
9:55 pm 21:55 Cloudy 68 20.1 60 15.6 75 75 SSW 17 28 29.92 1013 10 16.0934 0.09 2.286
10:15 pm 22:15 Cloudy with Thunderstorms 65 18.6 61 16 85 85 S 23 37 29.89 1012 7 11.26538 0.03 0.762
10:35 pm 22:35 Cloudy with Light Rain 65 18.2 61 16.2 88 88 SSE 32 52 29.81 1009 10 16.0934 0.05 1.27
10:55 pm 22:55 Partly Cloudy with Nearby Thunderstorms 71 21.7 59 15.1 66 66 S 26 43 29.79 1009 10 16.0934 0.06 1.524
11:15 pm 23:15 Clear 71 21.8 59 14.9 65 65 NW 14 22 29.88 1012 10 16.0934 0 0
11:35 pm 23:35 Clear with Nearby Thunderstorms 70 21.3 60 15.3 69 69 N 15 24 29.94 1014 10 16.0934 0 0
11:55 pm 23:55 Clear 70 21.1 60 15.3 70 70 N 16 26 29.93 1014 10 16.0934 0 0

Powered by AerisWeather